User: anonymous   Login
Location: Unspecified
(0.0000°N, 0.0000°E)
Time: 19:58:39
(UTC+00:00)
Language:

SHAONIAN XING - Orbit

View from above orbital plane
View from above orbital plane
View from above satellite
View from above satellite

Ground track
Ground track

The orbit data is extracted from the following two-line orbital elements,

1 43199U 18015H   18350.95272466 +.00001462 +00000-0 +62710-4 0  9992
2 43199 097.3563 115.9188 0016187 228.7191 131.2653 15.24218670048376
Epoch (UTC): 16 December 2018 22:51:55
Eccentricity: 0.0016187
inclination: 97.3563°
perigee height: 482 km
apogee height: 504 km
right ascension of ascending node: 115.9188°
argument of perigee: 228.7191°
revolutions per day: 15.24218670
mean anomaly at epoch: 131.2653°
orbit number at epoch: 4837

The dashed part of the orbit path shows where the satellite is in the earth's shadow,  

DLR